RH
23 62 58 44 32 25 13 28 32 56 68 81 93 100 97 99 98 88 70 75 60 35 62 78 57 75 87 93 97 64 65 88 69 70 76 44 36 34 28 24 10 17 19
29 59 61 58 41 22 17 31 38 52 74 97 100 100 100 91 88 90 87 43 15 44 47 69 72 74 93 94 96 78 48 96 82 90 100 70 41 36 29 28 25 10 17
16 54 84 51 40 17 16 26 45 64 77 86 95 95 100 100 100 94 100 72 12 15 19 25 66 75 84 100 100 75 65 77 100 98 100 99 51 42 34 34 28 22 12
22 42 50 42 34 18 14 21 30 52 78 100 100 100 100 100 82 93 100 100 78 22 25 59 57 60 80 97 100 81 69 71 97 100 100 96 76 63 45 40 38 29 29
47 50 60 70 32 17 11 13 16 30 52 100 100 100 97 100 99 74 57 98 100 94 58 43 54 50 70 90 100 96 66 65 77 99 76 100 100 91 86 49 45 32 35
34 41 46 43 29 12 9 12 18 27 60 100 100 100 100 96 100 100 100 86 100 100 100 100 48 32 55 95 81 99 90 62 53 65 93 100 100 61 100 77 51 45 42
29 36 39 42 21 11 7 12 16 25 90 99 100 100 100 95 100 99 100 73 87 96 100 100 100 70 44 53 76 100 98 68 40 56 81 97 69 83 100 92 68 51 44
13 22 22 25 20 13 9 7 13 18 51 95 94 100 100 100 100 95 100 86 99 100 76 99 100 87 89 65 94 100 100 99 57 46 79 100 96 63 100 91 84 61 48
12 12 12 14 16 20 17 10 8 14 38 100 97 100 100 100 96 88 100 92 69 90 97 99 87 98 90 86 79 95 100 97 79 50 73 98 99 87 100 89 70 85 51
14 13 11 12 14 15 20 23 9 8 14 63 97 100 100 97 96 100 100 100 89 86 86 94 86 92 85 94 78 82 82 81 84 48 75 100 89 95 99 94 70 100 52
12 15 16 18 15 13 13 11 10 13 7 24 79 93 100 100 100 100 84 100 92 96 87 82 95 54 39 59 71 78 75 69 74 62 65 98 100 100 96 69 90 100 61
28 40 38 39 30 21 10 8 8 8 7 8 22 91 100 100 99 99 86 81 100 96 100 80 66 84 47 44 64 60 54 52 63 75 88 92 88 99 77 100 75 100 91
18 24 32 34 35 20 15 8 7 8 7 7 6 40 100 100 100 99 90 90 99 96 100 100 95 77 67 51 57 78 57 51 76 74 83 88 100 100 96 100 51 96 97
13 12 13 11 12 15 10 8 8 8 8 6 6 11 27 57 99 100 82 77 96 90 83 96 92 40 25 46 74 74 83 82 99 95 88 76 86 97 100 100 100 97 100
17 12 11 11 11 12 10 8 8 8 9 10 7 7 8 16 46 91 100 78 83 91 85 81 84 55 24 52 65 78 72 85 91 86 81 71 74 82 100 100 100 90 60
21 19 14 14 14 10 12 10 9 8 8 10 15 13 8 6 8 19 65 100 75 66 88 86 80 77 44 33 67 71 84 93 67 78 89 100 98 97 82 95 99 97 86
53 68 28 18 16 13 12 12 11 10 9 9 9 16 19 8 6 5 9 70 98 81 56 67 76 74 67 46 38 48 69 87 92 98 87 80 85 93 90 94 100 100 95
22 21 20 20 18 15 15 14 13 13 11 11 11 10 12 20 13 9 6 8 61 99 68 58 61 71 78 63 47 37 35 25 24 30 41 65 79 78 83 90 100 100 95
22 20 21 19 22 21 17 16 15 15 14 12 11 12 11 10 16 18 10 7 10 82 80 71 60 56 71 72 66 58 69 63 52 38 34 32 36 53 63 72 83 89 93
21 19 20 21 20 20 19 18 17 19 18 17 13 13 13 12 10 13 19 16 10 18 64 70 69 60 51 52 60 60 78 95 98 67 70 62 33 22 29 54 66 71 71
19 18 19 21 22 20 18 18 18 19 19 20 17 15 17 16 16 12 11 19 21 15 38 36 55 61 53 42 32 39 60 77 82 98 89 62 40 25 15 19 55 72 82
23 24 23 22 21 21 22 21 18 18 18 19 20 17 17 17 17 16 13 11 16 27 26 69 57 52 53 44 30 28 31 46 61 64 80 66 49 27 27 16 25 63 76
30 30 28 28 28 26 24 21 21 22 19 18 19 18 18 18 17 16 14 13 10 14 28 47 73 57 54 45 36 25 23 30 38 46 53 62 60 44 27 28 32 67 80
36 37 36 34 33 32 31 29 24 19 18 18 18 19 18 18 17 16 16 14 13 11 12 25 56 82 57 51 42 31 24 27 28 31 43 55 49 44 28 32 48 65 78
32 32 32 33 32 32 31 30 30 28 25 21 19 19 18 18 17 18 17 17 15 14 12 11 22 34 58 62 47 40 33 26 30 30 31 39 42 41 50 34 33 39 42
31 31 31 30 31 29 28 29 30 29 28 27 26 23 23 21 19 20 21 20 20 17 14 11 11 14 24 40 66 60 46 40 30 26 28 26 35 41 47 41 46 47 50
Wind_Speed
19 17 16 16 18 11 5 7 12 17 14 17 17 13 10 16 24 28 28 22 28 36 44 40 36 31 27 25 20 18 14 5 1 7 5 11 15 20 21 16 5 5 4
20 18 18 19 22 11 7 11 19 18 17 17 10 5 7 21 28 32 34 25 14 21 30 41 40 37 30 25 21 23 17 12 6 6 4 17 8 14 17 25 18 5 6
20 20 19 17 19 10 12 19 19 21 19 14 9 7 14 21 23 30 30 27 14 14 17 26 38 38 35 26 23 24 20 17 13 4 12 14 3 7 11 18 24 16 6
20 20 20 18 18 10 17 21 25 26 23 21 6 6 15 23 28 32 26 24 18 10 13 18 26 35 38 31 26 27 23 21 14 7 16 5 3 7 5 11 17 20 20
21 20 19 18 20 16 24 25 30 34 35 24 23 26 34 37 24 31 29 15 14 11 7 12 19 27 35 33 29 27 27 25 20 15 13 10 11 13 9 6 11 13 20
22 21 19 19 25 22 29 31 35 39 38 35 41 31 30 35 31 33 32 22 15 16 15 14 16 20 33 34 30 28 30 28 22 17 16 15 16 20 16 9 6 14 18
20 21 25 24 26 27 29 35 38 39 40 42 24 30 36 26 22 24 18 17 17 20 29 29 23 22 27 35 34 30 34 27 23 21 20 22 17 19 16 13 7 9 18
16 15 21 32 31 34 30 34 40 38 43 43 37 28 27 23 20 19 14 20 21 22 29 26 23 19 26 34 36 36 35 31 30 24 22 25 23 20 20 10 9 10 14
21 22 22 25 29 35 33 32 39 42 43 45 40 34 25 30 22 27 22 27 27 28 31 28 28 20 22 32 38 37 38 37 35 33 25 28 25 22 24 18 19 12 15
26 28 28 28 31 35 40 39 41 44 46 49 44 37 34 32 32 24 30 29 32 30 30 29 28 25 22 29 38 43 43 42 36 32 30 27 29 29 22 24 24 18 18
29 29 29 29 29 33 39 42 44 46 49 49 52 41 43 36 41 34 33 32 35 36 33 32 29 26 26 34 36 40 42 43 44 40 37 34 34 35 36 31 27 27 19
26 25 28 31 31 31 37 41 44 48 50 50 52 48 50 40 39 42 37 39 38 39 37 31 30 29 29 33 32 29 38 43 49 51 44 37 37 31 31 34 33 35 20
31 31 30 33 36 36 35 37 41 47 50 52 53 55 57 45 41 42 41 42 45 40 39 37 37 35 32 35 38 36 33 31 35 35 35 32 29 34 40 36 35 33 27
39 37 38 38 40 39 37 40 40 42 48 51 52 54 66 61 56 45 48 45 45 46 45 44 41 37 37 39 41 41 38 35 36 36 36 36 34 29 38 37 41 35 35
47 44 41 41 41 41 41 41 42 40 44 50 54 56 58 66 62 59 51 52 49 46 46 48 44 39 35 42 42 43 43 43 42 42 37 44 45 39 33 42 51 46 46
52 52 49 48 50 46 45 44 44 45 43 47 50 57 58 60 64 63 61 56 57 51 48 45 46 40 37 37 41 46 44 45 44 46 47 47 47 47 45 43 42 46 50
57 59 57 56 56 53 50 48 49 46 49 48 48 50 57 58 65 68 63 64 61 61 58 54 48 44 37 40 40 41 47 49 50 51 51 50 52 53 50 51 46 44 44
61 61 60 61 61 56 56 53 52 52 53 52 52 51 52 55 60 61 67 64 65 66 68 61 55 51 48 43 45 44 43 43 45 48 49 53 55 54 53 51 48 45 47
65 64 62 62 61 61 59 57 56 56 59 57 58 57 56 53 56 60 61 66 67 69 73 70 64 59 55 48 45 44 45 46 47 48 47 51 58 60 59 57 53 48 47
60 60 60 60 61 61 60 60 58 59 62 63 60 60 58 55 56 57 61 63 68 69 72 73 70 68 65 60 52 51 46 41 41 38 36 40 48 55 62 63 59 55 49
60 59 59 60 62 62 63 62 63 63 65 67 65 63 61 61 62 60 59 63 65 71 73 72 73 74 73 69 62 57 52 45 44 44 40 41 45 50 55 63 65 61 54
60 60 60 60 59 60 61 61 63 65 66 70 70 68 66 67 68 67 64 61 66 70 75 75 75 76 75 73 68 63 61 56 51 47 45 42 44 46 47 54 61 63 59
60 61 62 62 62 63 63 64 64 66 68 70 71 72 71 69 71 70 69 68 63 68 73 79 83 80 79 75 74 71 65 64 60 52 47 47 46 45 42 45 51 58 58
64 64 65 66 67 67 67 67 66 65 67 69 72 73 72 71 70 70 70 68 68 65 70 75 84 87 85 82 77 76 73 70 68 63 55 51 51 45 44 44 47 51 53
66 66 67 67 67 67 68 68 69 69 68 67 68 69 69 68 67 67 69 67 68 70 67 71 80 84 89 91 87 83 80 76 75 71 67 58 56 52 50 50 49 50 50
70 69 68 68 68 68 68 67 67 69 70 70 69 69 69 69 68 67 67 68 68 70 71 72 72 80 85 87 92 92 89 84 81 80 77 72 63 59 54 55 53 51 52
Wind_Direction
262 264 282 284 297 318 299 183 159 145 143 124 104 77 32 13 19 9 360 349 246 242 240 239 238 246 249 264 271 264 259 241 148 352 59 46 43 36 30 22 356 258 235
256 259 268 278 285 294 229 169 155 169 161 137 150 153 25 358 4 1 355 355 265 245 239 237 231 240 248 258 259 254 259 234 253 348 353 345 34 39 28 31 19 313 261
262 261 272 268 280 273 201 173 173 176 169 138 79 45 354 343 331 340 337 352 340 264 248 235 236 236 243 246 247 246 253 242 244 296 289 320 346 13 33 28 25 19 308
259 252 253 256 265 251 209 188 203 199 193 187 142 359 317 319 316 317 320 330 333 337 295 252 242 237 240 235 241 241 246 251 236 244 278 289 313 328 19 21 11 19 27
252 248 252 260 258 239 212 208 215 208 216 203 252 234 255 253 297 294 306 315 321 321 330 310 260 240 233 229 237 237 241 245 236 226 242 257 304 299 295 359 3 10 6
247 242 232 235 250 233 213 214 219 219 221 213 220 241 213 244 266 266 286 286 285 294 300 319 284 249 234 232 233 234 236 242 234 244 237 287 288 280 273 295 353 1 0
246 245 242 239 249 240 219 216 224 232 224 221 224 222 235 244 255 261 267 260 266 275 283 279 298 248 234 233 234 233 233 237 228 238 255 241 258 273 278 278 291 343 350
260 255 254 239 247 251 237 230 233 248 232 231 234 210 219 236 244 239 241 243 244 243 264 278 273 261 232 225 228 229 232 234 234 240 247 249 254 261 259 276 260 309 328
278 278 265 253 246 250 244 244 245 249 243 228 212 214 221 234 243 241 232 237 239 237 252 275 269 268 241 229 232 237 235 241 236 241 242 247 250 253 274 272 283 272 304
271 271 266 254 247 247 245 256 252 252 247 241 224 223 217 242 237 248 238 237 235 237 246 254 256 267 256 235 233 239 242 246 234 236 237 253 250 247 257 274 265 259 296
268 269 268 261 250 252 252 252 254 254 250 244 234 232 221 232 239 243 245 230 238 236 242 251 250 252 263 254 246 241 246 244 240 244 242 254 248 247 248 248 266 258 278
267 273 272 266 253 258 262 257 252 253 254 250 237 233 225 230 240 242 241 237 237 237 241 253 258 250 263 256 247 251 249 247 242 247 248 247 245 240 238 258 258 267 268
268 267 266 269 269 268 269 263 257 252 251 252 246 232 226 230 230 240 239 241 243 239 237 245 253 259 255 253 251 253 251 239 238 239 238 239 243 242 237 251 239 262 268
272 269 269 267 269 269 270 267 262 258 256 252 251 244 241 242 237 234 242 240 241 242 244 246 254 259 256 245 250 249 243 246 247 252 251 236 241 251 239 237 244 252 267
276 275 273 273 272 271 270 267 264 261 256 252 249 249 245 241 241 238 236 242 242 246 249 250 252 257 257 245 244 245 248 246 244 247 248 243 248 256 249 243 248 248 247
277 279 279 279 278 272 270 268 264 264 259 255 253 250 249 245 242 244 245 238 244 246 250 252 252 256 258 251 249 246 246 252 246 244 249 250 251 254 253 252 253 252 249
272 276 277 278 276 274 271 270 267 262 265 260 256 254 252 248 246 243 245 246 241 246 251 253 252 251 253 257 249 251 252 250 249 250 252 252 251 250 250 251 254 253 247
270 270 272 274 273 271 271 269 266 265 264 260 261 258 253 250 249 247 245 244 246 244 248 251 253 253 252 254 249 247 247 247 249 250 252 253 252 250 249 248 248 248 247
268 268 268 268 267 266 266 264 263 263 263 262 260 257 257 254 251 250 247 245 243 243 245 248 251 254 252 249 247 246 250 254 253 250 250 253 253 250 247 247 247 242 246
264 265 265 265 264 262 261 261 261 260 262 262 261 263 263 261 253 251 250 248 244 243 243 245 248 251 251 250 248 248 246 252 255 260 259 257 252 252 251 247 245 243 243
263 264 264 265 266 266 262 258 259 259 259 260 261 262 263 264 264 258 250 248 246 244 242 243 244 245 249 250 246 248 249 249 254 260 262 265 263 254 251 248 246 244 240
267 268 267 266 265 265 264 263 263 261 259 259 259 260 261 263 263 263 260 252 247 245 243 241 242 244 244 246 248 245 249 250 251 256 263 269 271 265 257 246 243 243 243
269 270 270 270 270 270 269 267 264 261 259 257 257 258 259 259 260 261 260 259 252 244 243 242 241 241 244 243 245 248 246 247 249 251 255 264 269 272 260 251 242 242 246
266 267 267 268 268 268 267 267 266 263 261 259 259 259 259 258 257 258 258 256 255 251 243 241 241 241 242 243 241 244 246 246 245 247 249 255 259 266 262 254 248 245 246
270 269 269 268 266 265 263 262 262 263 261 260 259 259 259 257 256 254 253 253 252 251 249 244 241 242 243 242 245 244 244 244 245 245 246 248 251 256 257 253 248 242 242
271 270 270 268 268 267 265 263 260 258 257 257 257 257 256 256 253 251 251 252 251 251 250 248 244 242 243 243 243 243 245 244 243 243 244 246 248 248 249 245 242 245 247